| time (UTC) | temp F | wind direction | speed MPH | gust MPH | rain 1hr in | rain 24hr in | rain mn in | humidity % | barometer mb |
| 20260904111554 | 49 | 251 | 0.0 | 1.0 | 0.00 | 0.24 | 0.00 | 98 | 1015.0 |
| 20260904110024 | 49 | 251 | 0.0 | 0.0 | 0.00 | 0.24 | 0.00 | 98 | 1014.9 |
| 20260904104552 | 49 | 251 | 0.0 | 0.0 | 0.00 | 0.24 | 0.00 | 98 | 1014.7 |
| 20260904103051 | 49 | 251 | 0.0 | 0.0 | 0.00 | 0.24 | 0.00 | 98 | 1014.6 |
| 20260904101551 | 49 | 251 | 0.0 | 0.0 | 0.00 | 0.24 | 0.00 | 97 | 1014.4 |
| 20260904100051 | 49 | 251 | 0.0 | 0.0 | 0.00 | 0.24 | 0.00 | 97 | 1014.4 |
| 20260904094551 | 49 | 251 | 0.0 | 0.0 | 0.00 | 0.24 | 0.00 | 97 | 1014.5 |
| 20260904093047 | 49 | 251 | 0.0 | 0.0 | 0.00 | 0.24 | 0.00 | 97 | 1014.7 |
| 20260904091545 | 49 | 251 | 0.0 | 0.0 | 0.00 | 0.24 | 0.00 | 97 | 1014.6 |
| 20260904090044 | 49 | 251 | 0.0 | 2.0 | 0.00 | 0.24 | 0.00 | 97 | 1014.8 |
| 20260904084542 | 49 | 141 | 0.0 | 0.0 | 0.00 | 0.24 | 0.00 | 97 | 1014.8 |
| 20260904083046 | 50 | 141 | 0.0 | 2.0 | 0.00 | 0.24 | 0.00 | 97 | 1014.9 |
| 20260904081538 | 50 | 252 | 0.0 | 0.0 | 0.00 | 0.24 | 0.00 | 97 | 1014.8 |
| 20260904080037 | 50 | 252 | 0.0 | 0.0 | 0.00 | 0.24 | 0.00 | 97 | 1014.7 |
| 20260904074535 | 51 | 252 | 0.0 | 0.0 | 0.00 | 0.24 | 0.00 | 97 | 1014.7 |
| 20260904073035 | 51 | 252 | 0.0 | 0.0 | 0.00 | 0.24 | 0.00 | 97 | 1014.7 |
| 20260904071533 | 51 | 252 | 0.0 | 0.0 | 0.00 | 0.24 | 0.00 | 97 | 1014.7 |
| 20260904070030 | 52 | 252 | 0.0 | 0.0 | 0.00 | 0.24 | 0.00 | 97 | 1014.6 |
| 20260904064529 | 52 | 252 | 0.0 | 0.0 | 0.00 | 0.25 | 0.24 | 97 | 1014.5 |
| 20260904063034 | 52 | 252 | 0.0 | 0.0 | 0.00 | 0.25 | 0.24 | 97 | 1014.5 |
| 20260904061526 | 53 | 252 | 0.0 | 0.0 | 0.00 | 0.25 | 0.24 | 96 | 1014.3 |
| 20260904060025 | 53 | 252 | 0.0 | 2.0 | 0.00 | 0.25 | 0.24 | 96 | 1014.3 |
| 20260904054523 | 54 | 290 | 0.0 | 0.0 | 0.00 | 0.25 | 0.24 | 97 | 1014.3 |
| 20260904053021 | 54 | 329 | 0.0 | 0.0 | 0.00 | 0.25 | 0.24 | 97 | 1014.2 |
| 20260904051520 | 54 | 329 | 0.0 | 0.0 | 0.00 | 0.25 | 0.24 | 97 | 1014.3 |
| 20260904050019 | 55 | 329 | 0.0 | 2.0 | 0.00 | 0.25 | 0.24 | 97 | 1014.3 |
| 20260904044521 | 55 | 328 | 0.0 | 2.0 | 0.00 | 0.26 | 0.24 | 97 | 1014.4 |
| 20260904043016 | 55 | 333 | 0.0 | 2.0 | 0.00 | 0.26 | 0.24 | 97 | 1014.3 |
| 20260904041515 | 56 | 333 | 0.0 | 0.0 | 0.00 | 0.26 | 0.24 | 97 | 1014.2 |
| 20260904040015 | 56 | 333 | 0.0 | 0.0 | 0.00 | 0.26 | 0.24 | 97 | 1014.0 |
| 20260904034515 | 56 | 333 | 0.0 | 0.0 | 0.00 | 0.28 | 0.24 | 97 | 1013.9 |
| 20260904033013 | 57 | 333 | 0.0 | 0.0 | 0.00 | 0.28 | 0.24 | 97 | 1013.7 |
| 20260904031512 | 57 | 333 | 0.0 | 0.0 | 0.00 | 0.28 | 0.24 | 96 | 1013.6 |
| 20260904030011 | 57 | 333 | 0.0 | 0.0 | 0.00 | 0.28 | 0.24 | 96 | 1013.6 |
| 20260904024514 | 58 | 333 | 0.0 | 0.0 | 0.00 | 0.33 | 0.24 | 96 | 1013.6 |
| 20260904023011 | 58 | 333 | 0.0 | 0.0 | 0.00 | 0.33 | 0.24 | 96 | 1013.5 |
| 20260904021511 | 58 | 333 | 0.0 | 0.0 | 0.00 | 0.33 | 0.24 | 96 | 1013.5 |
| 20260904020008 | 58 | 333 | 0.0 | 0.0 | 0.00 | 0.33 | 0.24 | 96 | 1013.6 |
| 20260904014508 | 59 | 333 | 0.0 | 0.0 | 0.00 | 0.42 | 0.24 | 96 | 1013.7 |
| 20260904013008 | 59 | 333 | 0.0 | 0.0 | 0.00 | 0.42 | 0.24 | 96 | 1013.7 |
| 20260904011511 | 59 | 333 | 0.0 | 0.0 | 0.00 | 0.42 | 0.24 | 96 | 1013.8 |
| 20260904010009 | 59 | 333 | 0.0 | 0.0 | 0.00 | 0.42 | 0.24 | 96 | 1013.8 |
| 20260904004506 | 59 | 333 | 0.0 | 0.0 | 0.01 | 0.51 | 0.24 | 96 | 1013.9 |
| 20260904003006 | 59 | 333 | 0.0 | 3.0 | 0.07 | 0.51 | 0.24 | 96 | 1013.9 |
| 20260904001506 | 58 | 329 | 1.0 | 2.0 | 0.07 | 0.51 | 0.24 | 96 | 1013.9 |
| 20260904000004 | 57 | 129 | 0.0 | 1.0 | 0.07 | 0.51 | 0.24 | 96 | 1014.0 |
| 20260903234504 | 57 | 130 | 0.0 | 2.0 | 0.06 | 0.55 | 0.23 | 96 | 1014.1 |
| 20260903233003 | 58 | 129 | 0.0 | 3.0 | 0.00 | 0.49 | 0.17 | 96 | 1014.2 |
| 20260903231509 | 58 | 132 | 0.0 | 3.0 | 0.00 | 0.49 | 0.17 | 95 | 1014.0 |
| 20260903230003 | 59 | 113 | 0.0 | 2.0 | 0.00 | 0.49 | 0.17 | 96 | 1013.9 |
| 20260903224508 | 59 | 119 | 0.0 | 2.0 | 0.04 | 0.51 | 0.17 | 95 | 1013.9 |
| 20260903223004 | 59 | 119 | 1.0 | 3.0 | 0.04 | 0.51 | 0.17 | 97 | 1014.1 |
| 20260903221503 | 59 | 121 | 0.0 | 2.0 | 0.05 | 0.51 | 0.17 | 97 | 1014.1 |
| 20260903220100 | 59 | 121 | 0.0 | 2.0 | 0.05 | 0.51 | 0.17 | 96 | 1014.3 |
| 20260903214612 | 59 | 114 | 0.0 | 2.0 | 0.01 | 0.49 | 0.13 | 95 | 1014.3 |
| 20260903213107 | 60 | 128 | 0.0 | 3.0 | 0.01 | 0.49 | 0.13 | 93 | 1014.3 |
| 20260903211603 | 61 | 15 | 0.0 | 3.0 | 0.00 | 0.48 | 0.12 | 96 | 1014.0 |
| 20260903210125 | 61 | 138 | 0.0 | 2.0 | 0.00 | 0.48 | 0.12 | 96 | 1014.0 |
| 20260903204601 | 61 | 138 | 0.0 | 2.0 | 0.00 | 0.49 | 0.12 | 96 | 1013.7 |
| 20260903203110 | 61 | 265 | 0.0 | 2.0 | 0.00 | 0.49 | 0.12 | 96 | 1013.6 |
| 20260903201553 | 61 | 265 | 0.0 | 2.0 | 0.00 | 0.49 | 0.12 | 96 | 1013.7 |
| 20260903200055 | 60 | 265 | 0.0 | 2.0 | 0.00 | 0.49 | 0.12 | 96 | 1013.8 |
| 20260903194551 | 60 | 265 | 0.0 | 2.0 | 0.00 | 0.52 | 0.12 | 96 | 1014.1 |
| 20260903193050 | 60 | 265 | 0.0 | 2.0 | 0.00 | 0.52 | 0.12 | 96 | 1014.1 |
| 20260903191548 | 61 | 265 | 0.0 | 3.0 | 0.01 | 0.52 | 0.12 | 96 | 1014.1 |
| 20260903190046 | 59 | 53 | 0.0 | 2.0 | 0.01 | 0.52 | 0.12 | 98 | 1014.1 |
| 20260903184543 | 58 | 53 | 0.0 | 2.0 | 0.01 | 0.54 | 0.12 | 98 | 1014.4 |
| 20260903183048 | 58 | 120 | 0.0 | 0.0 | 0.01 | 0.54 | 0.12 | 97 | 1014.3 |
| 20260903181542 | 58 | 238 | 0.0 | 3.0 | 0.00 | 0.53 | 0.11 | 97 | 1014.3 |
| 20260903180044 | 58 | 238 | 0.0 | 1.0 | 0.00 | 0.53 | 0.11 | 98 | 1014.1 |
| 20260903174542 | 58 | 238 | 0.0 | 2.0 | 0.00 | 0.56 | 0.11 | 98 | 1014.0 |
| 20260903173042 | 58 | 338 | 0.0 | 2.0 | 0.01 | 0.56 | 0.11 | 98 | 1013.9 |
| 20260903171540 | 58 | 338 | 0.0 | 0.0 | 0.02 | 0.56 | 0.11 | 98 | 1014.0 |
| 20260903170038 | 58 | 338 | 0.0 | 0.0 | 0.02 | 0.56 | 0.11 | 98 | 1013.9 |
| 20260903164539 | 57 | 338 | 0.0 | 0.0 | 0.03 | 0.60 | 0.11 | 98 | 1013.9 |
| 20260903163040 | 57 | 338 | 0.0 | 0.0 | 0.02 | 0.59 | 0.10 | 98 | 1014.0 |
| 20260903161535 | 57 | 338 | 0.0 | 2.0 | 0.01 | 0.57 | 0.09 | 98 | 1014.0 |
| 20260903160035 | 57 | 338 | 0.0 | 2.0 | 0.01 | 0.57 | 0.09 | 98 | 1014.2 |
| 20260903154541 | 57 | 338 | 0.0 | 0.0 | 0.00 | 0.59 | 0.08 | 98 | 1014.1 |
| 20260903153033 | 57 | 338 | 0.0 | 0.0 | 0.03 | 0.59 | 0.08 | 98 | 1014.2 |
| 20260903151531 | 56 | 338 | 0.0 | 2.0 | 0.05 | 0.59 | 0.08 | 98 | 1014.1 |
| 20260903150031 | 56 | 338 | 0.0 | 0.0 | 0.07 | 0.59 | 0.08 | 98 | 1014.0 |
| 20260903144531 | 56 | 338 | 0.0 | 0.0 | 0.07 | 0.59 | 0.08 | 98 | 1014.0 |
| 20260903143033 | 56 | 338 | 0.0 | 0.0 | 0.04 | 0.56 | 0.05 | 98 | 1014.0 |
| 20260903141529 | 56 | 338 | 0.0 | 0.0 | 0.02 | 0.54 | 0.03 | 98 | 1014.0 |
| 20260903140032 | 56 | 338 | 0.0 | 0.0 | 0.00 | 0.52 | 0.01 | 98 | 1014.0 |
| 20260903134528 | 56 | 338 | 0.0 | 0.0 | 0.00 | 0.52 | 0.01 | 98 | 1013.9 |
| 20260903133029 | 56 | 338 | 0.0 | 0.0 | 0.00 | 0.52 | 0.01 | 98 | 1013.9 |
| 20260903131527 | 56 | 338 | 0.0 | 0.0 | 0.00 | 0.52 | 0.01 | 98 | 1013.9 |
| 20260903130027 | 56 | 338 | 0.0 | 0.0 | 0.01 | 0.52 | 0.01 | 98 | 1013.9 |
| 20260903124525 | 56 | 338 | 0.0 | 0.0 | 0.01 | 0.52 | 0.01 | 98 | 1014.0 |
| 20260903123032 | 56 | 338 | 0.0 | 0.0 | 0.01 | 0.52 | 0.01 | 98 | 1014.1 |
| 20260903121524 | 56 | 338 | 0.0 | 0.0 | 0.01 | 0.52 | 0.01 | 98 | 1014.0 |
| 20260903120023 | 56 | 338 | 0.0 | 0.0 | 0.00 | 0.51 | 0.00 | 98 | 1014.3 |
| 20260903114521 | 56 | 338 | 0.0 | 0.0 | 0.00 | 0.51 | 0.00 | 98 | 1014.3 |
| 20260903113027 | 56 | 338 | 0.0 | 0.0 | 0.00 | 0.51 | 0.00 | 98 | 1014.4 |